Year,Month,Day,Hour,Minute,Value (Times are PST for temperature in C)
2011,05,31,00,00,11.60
2011,05,31,00,01,11.70
2011,05,31,00,02,11.70
2011,05,31,00,03,11.70
2011,05,31,00,04,11.70
2011,05,31,00,05,11.70
2011,05,31,00,06,11.70
2011,05,31,00,07,11.70
2011,05,31,00,08,11.60
2011,05,31,00,09,11.60
2011,05,31,00,10,11.60
2011,05,31,00,11,11.60
2011,05,31,00,12,11.60
2011,05,31,00,13,11.60
2011,05,31,00,14,11.60
2011,05,31,00,15,11.60
2011,05,31,00,16,11.50
2011,05,31,00,17,11.50
2011,05,31,00,18,11.50
2011,05,31,00,19,11.40
2011,05,31,00,20,11.40
2011,05,31,00,21,11.40
2011,05,31,00,22,11.40
2011,05,31,00,23,11.50
2011,05,31,00,24,11.50
2011,05,31,00,25,11.50
2011,05,31,00,26,11.60
2011,05,31,00,27,11.60
2011,05,31,00,28,11.60
2011,05,31,00,29,11.60
2011,05,31,00,30,11.70
2011,05,31,00,31,11.70
2011,05,31,00,32,11.70
2011,05,31,00,33,11.80
2011,05,31,00,34,11.80
2011,05,31,00,35,11.80
2011,05,31,00,36,11.80
2011,05,31,00,37,11.90
2011,05,31,00,38,11.90
2011,05,31,00,39,11.90
2011,05,31,00,40,12.00
2011,05,31,00,41,12.00
2011,05,31,00,42,12.00
2011,05,31,00,43,12.10
2011,05,31,00,44,12.10
2011,05,31,00,45,12.10
2011,05,31,00,46,12.10
2011,05,31,00,47,12.10
2011,05,31,00,48,12.10
2011,05,31,00,49,12.10
2011,05,31,00,50,12.20
2011,05,31,00,51,12.20
2011,05,31,00,52,12.10
2011,05,31,00,53,12.00
2011,05,31,00,54,11.90
2011,05,31,00,55,11.70
2011,05,31,00,56,11.50
2011,05,31,00,57,11.30
2011,05,31,00,58,11.20
2011,05,31,00,59,11.00
2011,05,31,01,00,10.90
2011,05,31,01,01,10.80
2011,05,31,01,02,10.60
2011,05,31,01,03,10.40
2011,05,31,01,04,10.20
2011,05,31,01,05,10.00
2011,05,31,01,06,9.90
2011,05,31,01,07,9.80
2011,05,31,01,08,9.70
2011,05,31,01,09,9.60
2011,05,31,01,10,9.60
2011,05,31,01,11,9.60
2011,05,31,01,12,9.60
2011,05,31,01,13,9.60
2011,05,31,01,14,9.60
2011,05,31,01,15,9.60
2011,05,31,01,16,9.70
2011,05,31,01,17,9.80
2011,05,31,01,18,9.80
2011,05,31,01,19,9.90
2011,05,31,01,20,10.00
2011,05,31,01,21,10.00
2011,05,31,01,22,10.10
2011,05,31,01,23,10.10
2011,05,31,01,24,10.20
2011,05,31,01,25,10.20
2011,05,31,01,26,10.20
2011,05,31,01,27,10.30
2011,05,31,01,28,10.30
2011,05,31,01,29,10.30
2011,05,31,01,30,10.40
2011,05,31,01,31,10.40
2011,05,31,01,32,10.40
2011,05,31,01,33,10.40
2011,05,31,01,34,10.50
2011,05,31,01,35,10.50
2011,05,31,01,36,10.50
2011,05,31,01,37,10.50
2011,05,31,01,38,10.50
2011,05,31,01,39,10.40
2011,05,31,01,40,10.40
2011,05,31,01,41,10.40
2011,05,31,01,42,10.40
2011,05,31,01,43,10.30
2011,05,31,01,44,10.30
2011,05,31,01,45,10.30
2011,05,31,01,46,10.30
2011,05,31,01,47,10.20
2011,05,31,01,48,10.20
2011,05,31,01,49,10.20
2011,05,31,01,50,10.20
2011,05,31,01,51,10.20
2011,05,31,01,52,10.20
2011,05,31,01,53,10.20
2011,05,31,01,54,10.20
2011,05,31,01,55,10.20
2011,05,31,01,56,10.10
2011,05,31,01,57,10.10
2011,05,31,01,58,10.10
2011,05,31,01,59,10.10
2011,05,31,02,00,10.00
2011,05,31,02,01,10.00
2011,05,31,02,02,10.00
2011,05,31,02,03,9.90
2011,05,31,02,04,9.90
2011,05,31,02,05,9.90
2011,05,31,02,06,9.80
2011,05,31,02,07,9.80
2011,05,31,02,08,9.80
2011,05,31,02,09,9.70
2011,05,31,02,10,9.70
2011,05,31,02,11,9.70
2011,05,31,02,12,9.70
2011,05,31,02,13,9.70
2011,05,31,02,14,9.60
2011,05,31,02,15,9.60
2011,05,31,02,16,9.60
2011,05,31,02,17,9.60
2011,05,31,02,18,9.60
2011,05,31,02,19,9.60
2011,05,31,02,20,9.60
2011,05,31,02,21,9.70
2011,05,31,02,22,9.70
2011,05,31,02,23,9.70
2011,05,31,02,24,9.80
2011,05,31,02,25,9.80
2011,05,31,02,26,9.80
2011,05,31,02,27,9.80
2011,05,31,02,28,9.80
2011,05,31,02,29,9.90
2011,05,31,02,30,9.90
2011,05,31,02,31,9.90
2011,05,31,02,32,10.00
2011,05,31,02,33,10.10
2011,05,31,02,34,10.10
2011,05,31,02,35,10.10
2011,05,31,02,36,10.10
2011,05,31,02,37,10.20
2011,05,31,02,38,10.20
2011,05,31,02,39,10.20
2011,05,31,02,40,10.20
2011,05,31,02,41,10.20
2011,05,31,02,42,10.20
2011,05,31,02,43,10.20
2011,05,31,02,44,10.20
2011,05,31,02,45,10.20
2011,05,31,02,46,10.20
2011,05,31,02,47,10.20
2011,05,31,02,48,10.20
2011,05,31,02,49,10.10
2011,05,31,02,50,10.10
2011,05,31,02,51,10.10
2011,05,31,02,52,10.10
2011,05,31,02,53,10.10
2011,05,31,02,54,10.10
2011,05,31,02,55,10.10
2011,05,31,02,56,10.10
2011,05,31,02,57,10.10
2011,05,31,02,58,10.10
2011,05,31,02,59,10.10
2011,05,31,03,00,10.10
2011,05,31,03,01,10.10
2011,05,31,03,02,10.10
2011,05,31,03,03,10.10
2011,05,31,03,04,10.10
2011,05,31,03,05,10.00
2011,05,31,03,06,10.00
2011,05,31,03,07,9.90
2011,05,31,03,08,9.90
2011,05,31,03,09,9.90
2011,05,31,03,10,9.80
2011,05,31,03,11,9.80
2011,05,31,03,12,9.80
2011,05,31,03,13,9.80
2011,05,31,03,14,9.80
2011,05,31,03,15,9.80
2011,05,31,03,16,9.90
2011,05,31,03,17,9.90
2011,05,31,03,18,9.90
2011,05,31,03,19,9.80
2011,05,31,03,20,9.80
2011,05,31,03,21,9.80
2011,05,31,03,22,9.80
2011,05,31,03,23,9.80
2011,05,31,03,24,9.80
2011,05,31,03,25,9.80
2011,05,31,03,26,9.80
2011,05,31,03,27,9.80
2011,05,31,03,28,9.80
2011,05,31,03,29,9.80
2011,05,31,03,30,9.80
2011,05,31,03,31,9.80
2011,05,31,03,32,9.80
2011,05,31,03,33,9.90
2011,05,31,03,34,10.00
2011,05,31,03,35,10.00
2011,05,31,03,36,10.10
2011,05,31,03,37,10.10
2011,05,31,03,38,10.10
2011,05,31,03,39,10.00
2011,05,31,03,40,10.00
2011,05,31,03,41,10.10
2011,05,31,03,42,10.10
2011,05,31,03,43,10.10
2011,05,31,03,44,10.10
2011,05,31,03,45,10.10
2011,05,31,03,46,10.20
2011,05,31,03,47,10.20
2011,05,31,03,48,10.20
2011,05,31,03,49,10.20
2011,05,31,03,50,10.20
2011,05,31,03,51,10.10
2011,05,31,03,52,10.00
2011,05,31,03,53,10.00
2011,05,31,03,54,9.90
2011,05,31,03,55,9.90
2011,05,31,03,56,9.80
2011,05,31,03,57,9.80
2011,05,31,03,58,9.80
2011,05,31,03,59,9.70
2011,05,31,04,00,9.70
2011,05,31,04,01,9.70
2011,05,31,04,02,9.60
2011,05,31,04,03,9.60
2011,05,31,04,04,9.70
2011,05,31,04,05,9.70
2011,05,31,04,06,9.70
2011,05,31,04,07,9.70
2011,05,31,04,08,9.70
2011,05,31,04,09,9.70
2011,05,31,04,10,9.70
2011,05,31,04,11,9.70
2011,05,31,04,12,9.70
2011,05,31,04,13,9.70
2011,05,31,04,14,9.70
2011,05,31,04,15,9.70
2011,05,31,04,16,9.70
2011,05,31,04,17,9.70
2011,05,31,04,18,9.70
2011,05,31,04,19,9.70
2011,05,31,04,20,9.70
2011,05,31,04,21,9.70
2011,05,31,04,22,9.70
2011,05,31,04,23,9.70
2011,05,31,04,24,9.70
2011,05,31,04,25,9.70
2011,05,31,04,26,9.70
2011,05,31,04,27,9.70
2011,05,31,04,28,9.70
2011,05,31,04,29,9.70
2011,05,31,04,30,9.70
2011,05,31,04,31,9.70
2011,05,31,04,32,9.70
2011,05,31,04,33,9.60
2011,05,31,04,34,9.60
2011,05,31,04,35,9.60
2011,05,31,04,36,9.60
2011,05,31,04,37,9.60
2011,05,31,04,38,9.60
2011,05,31,04,39,9.60
2011,05,31,04,40,9.60
2011,05,31,04,41,9.60
2011,05,31,04,42,9.60
2011,05,31,04,43,9.60
2011,05,31,04,44,9.60
2011,05,31,04,45,9.60
2011,05,31,04,46,9.60
2011,05,31,04,47,9.70
2011,05,31,04,48,9.70
2011,05,31,04,49,9.70
2011,05,31,04,50,9.70
2011,05,31,04,51,9.70
2011,05,31,04,52,9.70
2011,05,31,04,53,9.70
2011,05,31,04,54,9.70
2011,05,31,04,55,9.70
2011,05,31,04,56,9.70
2011,05,31,04,57,9.70
2011,05,31,04,58,9.70
2011,05,31,04,59,9.80
2011,05,31,05,00,9.80
2011,05,31,05,01,9.80
2011,05,31,05,02,9.80
2011,05,31,05,03,9.80
2011,05,31,05,04,9.90
2011,05,31,05,05,9.90
2011,05,31,05,06,9.90
2011,05,31,05,07,9.90
2011,05,31,05,08,9.90
2011,05,31,05,09,9.90
2011,05,31,05,10,9.90
2011,05,31,05,11,9.90
2011,05,31,05,12,9.90
2011,05,31,05,13,10.00
2011,05,31,05,14,10.00
2011,05,31,05,15,10.00
2011,05,31,05,16,10.00
2011,05,31,05,17,10.10
2011,05,31,05,18,10.10
2011,05,31,05,19,10.10
2011,05,31,05,20,10.10
2011,05,31,05,21,10.10
2011,05,31,05,22,10.00
2011,05,31,05,23,9.90
2011,05,31,05,24,9.80
2011,05,31,05,25,9.70
2011,05,31,05,26,9.60
2011,05,31,05,27,9.50
2011,05,31,05,28,9.40
2011,05,31,05,29,9.40
2011,05,31,05,30,9.30
2011,05,31,05,31,9.30
2011,05,31,05,32,9.20
2011,05,31,05,33,9.20
2011,05,31,05,34,9.20
2011,05,31,05,35,9.10
2011,05,31,05,36,9.10
2011,05,31,05,37,9.10
2011,05,31,05,38,9.10
2011,05,31,05,39,9.10
2011,05,31,05,40,9.10
2011,05,31,05,41,9.10
2011,05,31,05,42,9.10
2011,05,31,05,43,9.20
2011,05,31,05,44,9.30
2011,05,31,05,45,9.40
2011,05,31,05,46,9.50
2011,05,31,05,47,9.50
2011,05,31,05,48,9.60
2011,05,31,05,49,9.60
2011,05,31,05,50,9.60
2011,05,31,05,51,9.70
2011,05,31,05,52,9.70
2011,05,31,05,53,9.70
2011,05,31,05,54,9.80
2011,05,31,05,55,9.80
2011,05,31,05,56,9.80
2011,05,31,05,57,9.80
2011,05,31,05,58,9.80
2011,05,31,05,59,9.70
2011,05,31,06,00,9.70
2011,05,31,06,01,9.60
2011,05,31,06,02,9.60
2011,05,31,06,03,9.60
2011,05,31,06,04,9.50
2011,05,31,06,05,9.50
2011,05,31,06,06,9.40
2011,05,31,06,07,9.40
2011,05,31,06,08,9.40
2011,05,31,06,09,9.40
2011,05,31,06,10,9.40
2011,05,31,06,11,9.40
2011,05,31,06,12,9.40
2011,05,31,06,13,9.50
2011,05,31,06,14,9.50
2011,05,31,06,15,9.50
2011,05,31,06,16,9.60
2011,05,31,06,17,9.60
2011,05,31,06,18,9.60
2011,05,31,06,19,9.70
2011,05,31,06,20,9.70
2011,05,31,06,21,9.70
2011,05,31,06,22,9.70
2011,05,31,06,23,9.70
2011,05,31,06,24,9.80
2011,05,31,06,25,9.80
2011,05,31,06,26,9.80
2011,05,31,06,27,9.80
2011,05,31,06,28,9.80
2011,05,31,06,29,9.80
2011,05,31,06,30,9.80
2011,05,31,06,31,9.80
2011,05,31,06,32,9.80
2011,05,31,06,33,9.80
2011,05,31,06,34,9.70
2011,05,31,06,35,9.70
2011,05,31,06,36,9.70
2011,05,31,06,37,9.70
2011,05,31,06,38,9.70
2011,05,31,06,39,9.70
2011,05,31,06,40,9.70
2011,05,31,06,41,9.80
2011,05,31,06,42,9.80
2011,05,31,06,43,9.80
2011,05,31,06,44,9.80
2011,05,31,06,45,9.90
2011,05,31,06,46,9.90
2011,05,31,06,47,9.90
2011,05,31,06,48,10.00
2011,05,31,06,49,10.00
2011,05,31,06,50,10.10
2011,05,31,06,51,10.10
2011,05,31,06,52,10.20
2011,05,31,06,53,10.20
2011,05,31,06,54,10.20
2011,05,31,06,55,10.30
2011,05,31,06,56,10.30
2011,05,31,06,57,10.40
2011,05,31,06,58,10.40
2011,05,31,06,59,10.50
2011,05,31,07,00,10.60
2011,05,31,07,01,10.70
2011,05,31,07,02,10.80
2011,05,31,07,03,10.90
2011,05,31,07,04,10.90
2011,05,31,07,05,11.00
2011,05,31,07,06,11.10
2011,05,31,07,07,11.10
2011,05,31,07,08,11.20
2011,05,31,07,09,11.20
2011,05,31,07,10,11.30
2011,05,31,07,11,11.30
2011,05,31,07,12,11.40
2011,05,31,07,13,11.40
2011,05,31,07,14,11.40
2011,05,31,07,15,11.40
2011,05,31,07,16,11.50
2011,05,31,07,17,11.50
2011,05,31,07,18,11.60
2011,05,31,07,19,11.60
2011,05,31,07,20,11.60
2011,05,31,07,21,11.60
2011,05,31,07,22,11.70
2011,05,31,07,23,11.70
2011,05,31,07,24,11.70
2011,05,31,07,25,11.70
2011,05,31,07,26,11.70
2011,05,31,07,27,11.70
2011,05,31,07,28,11.70
2011,05,31,07,29,11.70
2011,05,31,07,30,11.70
2011,05,31,07,31,11.60
2011,05,31,07,32,11.60
2011,05,31,07,33,11.60
2011,05,31,07,34,11.60
2011,05,31,07,35,11.60
2011,05,31,07,36,11.60
2011,05,31,07,37,11.70
2011,05,31,07,38,11.70
2011,05,31,07,39,11.80
2011,05,31,07,40,11.90
2011,05,31,07,41,12.10
2011,05,31,07,42,12.20
2011,05,31,07,43,12.40
2011,05,31,07,44,12.60
2011,05,31,07,45,12.70
2011,05,31,07,46,12.80
2011,05,31,07,47,12.90
2011,05,31,07,48,13.00
2011,05,31,07,49,13.10
2011,05,31,07,50,13.20
2011,05,31,07,51,13.30
2011,05,31,07,52,13.30
2011,05,31,07,53,13.50
2011,05,31,07,54,13.50
2011,05,31,07,55,13.60
2011,05,31,07,56,13.70
2011,05,31,07,57,13.80
2011,05,31,07,58,13.80
2011,05,31,07,59,13.80
2011,05,31,08,00,13.90
2011,05,31,08,01,13.90
2011,05,31,08,02,14.00
2011,05,31,08,03,14.00
2011,05,31,08,04,14.10
2011,05,31,08,05,14.10
2011,05,31,08,06,14.00
2011,05,31,08,07,14.00
2011,05,31,08,08,13.90
2011,05,31,08,09,14.00
2011,05,31,08,10,14.10
2011,05,31,08,11,14.10
2011,05,31,08,12,14.20
2011,05,31,08,13,14.20
2011,05,31,08,14,14.20
2011,05,31,08,15,14.20
2011,05,31,08,16,14.20
2011,05,31,08,17,14.10
2011,05,31,08,18,14.10
2011,05,31,08,19,14.10
2011,05,31,08,20,14.10
2011,05,31,08,21,14.10
2011,05,31,08,22,14.10
2011,05,31,08,23,14.00
2011,05,31,08,24,14.10
2011,05,31,08,25,14.00
2011,05,31,08,26,14.00
2011,05,31,08,27,14.10
2011,05,31,08,28,14.00
2011,05,31,08,29,14.00
2011,05,31,08,30,13.90
2011,05,31,08,31,13.90
2011,05,31,08,32,13.90
2011,05,31,08,33,13.80
2011,05,31,08,34,13.80
2011,05,31,08,35,13.80
2011,05,31,08,36,13.80
2011,05,31,08,37,13.80
2011,05,31,08,38,13.80
2011,05,31,08,39,13.90
2011,05,31,08,40,13.90
2011,05,31,08,41,13.90
2011,05,31,08,42,13.90
2011,05,31,08,43,14.00
2011,05,31,08,44,14.00
2011,05,31,08,45,14.00
2011,05,31,08,46,13.90
2011,05,31,08,47,13.90
2011,05,31,08,48,13.90
2011,05,31,08,49,14.00
2011,05,31,08,50,14.00
2011,05,31,08,51,14.00
2011,05,31,08,52,14.10
2011,05,31,08,53,14.10
2011,05,31,08,54,14.20
2011,05,31,08,55,14.30
2011,05,31,08,56,14.30
2011,05,31,08,57,14.40
2011,05,31,08,58,14.50
2011,05,31,08,59,14.60
2011,05,31,09,00,14.70
2011,05,31,09,01,14.90
2011,05,31,09,02,15.00
2011,05,31,09,03,15.00
2011,05,31,09,04,15.00
2011,05,31,09,05,15.00
2011,05,31,09,06,15.00
2011,05,31,09,07,15.10
2011,05,31,09,08,15.10
2011,05,31,09,09,15.00
2011,05,31,09,10,15.00
2011,05,31,09,11,15.00
2011,05,31,09,12,14.80
2011,05,31,09,13,14.70
2011,05,31,09,14,14.60
2011,05,31,09,15,14.50
2011,05,31,09,16,14.50
2011,05,31,09,17,14.40
2011,05,31,09,18,14.30
2011,05,31,09,19,14.30
2011,05,31,09,20,14.30
2011,05,31,09,21,14.40
2011,05,31,09,22,14.40
2011,05,31,09,23,14.40
2011,05,31,09,24,14.50
2011,05,31,09,25,14.50
2011,05,31,09,26,14.60
2011,05,31,09,27,14.70
2011,05,31,09,28,14.80
2011,05,31,09,29,14.80
2011,05,31,09,30,14.90
2011,05,31,09,31,14.90
2011,05,31,09,32,14.90
2011,05,31,09,33,15.00
2011,05,31,09,34,15.00
2011,05,31,09,35,15.00
2011,05,31,09,36,15.00
2011,05,31,09,37,15.00
2011,05,31,09,38,15.00
2011,05,31,09,39,15.00
2011,05,31,09,40,14.90
2011,05,31,09,41,14.80
2011,05,31,09,42,14.80
2011,05,31,09,43,14.80
2011,05,31,09,44,14.80
2011,05,31,09,45,14.90
2011,05,31,09,46,15.00
2011,05,31,09,47,15.00
2011,05,31,09,48,15.00
2011,05,31,09,49,15.00
2011,05,31,09,50,15.00
2011,05,31,09,51,15.00
2011,05,31,09,52,15.00
2011,05,31,09,53,15.00
2011,05,31,09,54,15.00
2011,05,31,09,55,15.00
2011,05,31,09,56,15.00
2011,05,31,09,57,15.00
2011,05,31,09,58,15.00
2011,05,31,09,59,15.00
2011,05,31,10,00,15.00
2011,05,31,10,01,15.10
2011,05,31,10,02,15.20
2011,05,31,10,03,15.20
2011,05,31,10,04,15.20
2011,05,31,10,05,15.20
2011,05,31,10,06,15.20
2011,05,31,10,07,15.20
2011,05,31,10,08,15.30
2011,05,31,10,09,15.30
2011,05,31,10,10,15.40
2011,05,31,10,11,15.50
2011,05,31,10,12,15.60
2011,05,31,10,13,15.80
2011,05,31,10,14,15.90
2011,05,31,10,15,16.00
2011,05,31,10,16,16.00
2011,05,31,10,17,16.10
2011,05,31,10,18,16.20
2011,05,31,10,19,16.20
2011,05,31,10,20,16.10
2011,05,31,10,21,16.10
2011,05,31,10,22,16.10
2011,05,31,10,23,16.00
2011,05,31,10,24,15.90
2011,05,31,10,25,15.90
2011,05,31,10,26,15.90
2011,05,31,10,27,15.80
2011,05,31,10,28,15.80
2011,05,31,10,29,15.80
2011,05,31,10,30,15.80
2011,05,31,10,31,15.80
2011,05,31,10,32,15.70
2011,05,31,10,33,15.70
2011,05,31,10,34,15.80
2011,05,31,10,35,15.80
2011,05,31,10,36,15.80
2011,05,31,10,37,15.80
2011,05,31,10,38,15.90
2011,05,31,10,39,16.00
2011,05,31,10,40,16.00
2011,05,31,10,41,16.10
2011,05,31,10,42,16.20
2011,05,31,10,43,16.30
2011,05,31,10,44,16.30
2011,05,31,10,45,16.30
2011,05,31,10,46,16.30
2011,05,31,10,47,16.40
2011,05,31,10,48,16.40
2011,05,31,10,49,16.30
2011,05,31,10,50,16.30
2011,05,31,10,51,16.40
2011,05,31,10,52,16.40
2011,05,31,10,53,16.50
2011,05,31,10,54,16.60
2011,05,31,10,55,16.70
2011,05,31,10,56,16.70
2011,05,31,10,57,16.70
2011,05,31,10,58,16.70
2011,05,31,10,59,16.70
2011,05,31,11,00,16.80
2011,05,31,11,01,16.90
2011,05,31,11,02,16.90
2011,05,31,11,03,16.90
2011,05,31,11,04,17.00
2011,05,31,11,05,16.90
2011,05,31,11,06,16.90
2011,05,31,11,07,16.90
2011,05,31,11,08,16.90
2011,05,31,11,09,17.00
2011,05,31,11,10,17.00
2011,05,31,11,11,17.00
2011,05,31,11,12,16.90
2011,05,31,11,13,16.80
2011,05,31,11,14,16.90
2011,05,31,11,15,17.00
2011,05,31,11,16,17.10
2011,05,31,11,17,17.10
2011,05,31,11,18,17.20
2011,05,31,11,19,17.20
2011,05,31,11,20,17.10
2011,05,31,11,21,17.10
2011,05,31,11,22,17.10
2011,05,31,11,23,17.20
2011,05,31,11,24,17.20
2011,05,31,11,25,17.30
2011,05,31,11,26,17.40
2011,05,31,11,27,17.40
2011,05,31,11,28,17.40
2011,05,31,11,29,17.40
2011,05,31,11,30,17.40
2011,05,31,11,31,17.50
2011,05,31,11,32,17.50
2011,05,31,11,33,17.50
2011,05,31,11,34,17.50
2011,05,31,11,35,17.60
2011,05,31,11,36,17.60
2011,05,31,11,37,17.60
2011,05,31,11,38,17.70
2011,05,31,11,39,17.70
2011,05,31,11,40,17.70
2011,05,31,11,41,17.70
2011,05,31,11,42,17.70
2011,05,31,11,43,17.60
2011,05,31,11,44,17.50
2011,05,31,11,45,17.50
2011,05,31,11,46,17.50
2011,05,31,11,47,17.60
2011,05,31,11,48,17.70
2011,05,31,11,49,17.80
2011,05,31,11,50,17.90
2011,05,31,11,51,18.00
2011,05,31,11,52,18.10
2011,05,31,11,53,18.10
2011,05,31,11,54,18.20
2011,05,31,11,55,18.10
2011,05,31,11,56,18.20
2011,05,31,11,57,18.20
2011,05,31,11,58,18.30
2011,05,31,11,59,18.20
2011,05,31,12,00,18.10
2011,05,31,12,01,18.10
2011,05,31,12,02,18.10
2011,05,31,12,03,18.20
2011,05,31,12,04,18.30
2011,05,31,12,05,18.30
2011,05,31,12,06,18.40
2011,05,31,12,07,18.30
2011,05,31,12,08,18.20
2011,05,31,12,09,18.20
2011,05,31,12,10,18.20
2011,05,31,12,11,18.30
2011,05,31,12,12,18.30
2011,05,31,12,13,18.40
2011,05,31,12,14,18.40
2011,05,31,12,15,18.30
2011,05,31,12,16,18.40
2011,05,31,12,17,18.40
2011,05,31,12,18,18.40
2011,05,31,12,19,18.30
2011,05,31,12,20,18.30
2011,05,31,12,21,18.30
2011,05,31,12,22,18.30
2011,05,31,12,23,18.30
2011,05,31,12,24,18.20
2011,05,31,12,25,18.20
2011,05,31,12,26,18.20
2011,05,31,12,27,18.20
2011,05,31,12,28,18.20
2011,05,31,12,29,18.10
2011,05,31,12,30,18.20
2011,05,31,12,31,18.20
2011,05,31,12,32,18.30
2011,05,31,12,33,18.30
2011,05,31,12,34,18.30
2011,05,31,12,35,18.40
2011,05,31,12,36,18.40
2011,05,31,12,37,18.30
2011,05,31,12,38,18.40
2011,05,31,12,39,18.40
2011,05,31,12,40,18.30
2011,05,31,12,41,18.20
2011,05,31,12,42,18.20
2011,05,31,12,43,18.10
2011,05,31,12,44,18.10
2011,05,31,12,45,18.00
2011,05,31,12,46,18.00
2011,05,31,12,47,18.00
2011,05,31,12,48,18.10
2011,05,31,12,49,18.10
2011,05,31,12,50,18.10
2011,05,31,12,51,18.10
2011,05,31,12,52,18.10
2011,05,31,12,53,18.00
2011,05,31,12,54,17.90
2011,05,31,12,55,17.90
2011,05,31,12,56,17.90
2011,05,31,12,57,17.90
2011,05,31,12,58,17.90
2011,05,31,12,59,17.90
2011,05,31,13,00,17.90
2011,05,31,13,01,17.80
2011,05,31,13,02,17.70
2011,05,31,13,03,17.70
2011,05,31,13,04,17.70
2011,05,31,13,05,17.70
2011,05,31,13,06,17.70
2011,05,31,13,07,17.70
2011,05,31,13,08,17.70
2011,05,31,13,09,17.80
2011,05,31,13,10,17.80
2011,05,31,13,11,17.90
2011,05,31,13,12,18.00
2011,05,31,13,13,18.00
2011,05,31,13,14,18.00
2011,05,31,13,15,18.00
2011,05,31,13,16,18.00
2011,05,31,13,17,18.00
2011,05,31,13,18,18.00
2011,05,31,13,19,18.00
2011,05,31,13,20,18.00
2011,05,31,13,21,18.00
2011,05,31,13,22,17.90
2011,05,31,13,23,17.90
2011,05,31,13,24,17.80
2011,05,31,13,25,17.70
2011,05,31,13,26,17.60
2011,05,31,13,27,17.50
2011,05,31,13,28,17.40
2011,05,31,13,29,17.40
2011,05,31,13,30,17.30
2011,05,31,13,31,17.30
2011,05,31,13,32,17.30
2011,05,31,13,33,17.40
2011,05,31,13,34,17.40
2011,05,31,13,35,17.40
2011,05,31,13,36,17.40
2011,05,31,13,37,17.40
2011,05,31,13,38,17.30
2011,05,31,13,39,17.20
2011,05,31,13,40,17.20
2011,05,31,13,41,17.20
2011,05,31,13,42,17.10
2011,05,31,13,43,17.10
2011,05,31,13,44,17.10
2011,05,31,13,45,17.20
2011,05,31,13,46,17.30
2011,05,31,13,47,17.40
2011,05,31,13,48,17.40
2011,05,31,13,49,17.40
2011,05,31,13,50,17.20
2011,05,31,13,51,17.00
2011,05,31,13,52,16.90
2011,05,31,13,53,16.80
2011,05,31,13,54,16.60
2011,05,31,13,55,16.50
2011,05,31,13,56,16.30
2011,05,31,13,57,16.20
2011,05,31,13,58,16.10
2011,05,31,13,59,16.00
2011,05,31,14,00,15.90
2011,05,31,14,01,15.90
2011,05,31,14,02,15.80
2011,05,31,14,03,15.70
2011,05,31,14,04,15.60
2011,05,31,14,05,15.50
2011,05,31,14,06,15.40
2011,05,31,14,07,15.30
2011,05,31,14,08,15.30
2011,05,31,14,09,15.30
2011,05,31,14,10,15.30
2011,05,31,14,11,15.30
2011,05,31,14,12,15.30
2011,05,31,14,13,15.30
2011,05,31,14,14,15.30
2011,05,31,14,15,15.40
2011,05,31,14,16,15.40
2011,05,31,14,17,15.50
2011,05,31,14,18,15.50
2011,05,31,14,19,15.50
2011,05,31,14,20,15.30
2011,05,31,14,21,15.10
2011,05,31,14,22,15.00
2011,05,31,14,23,15.00
2011,05,31,14,24,15.00
2011,05,31,14,25,15.10
2011,05,31,14,26,15.20
2011,05,31,14,27,15.30
2011,05,31,14,28,15.30
2011,05,31,14,29,15.40
2011,05,31,14,30,15.40
2011,05,31,14,31,15.40
2011,05,31,14,32,15.30
2011,05,31,14,33,15.30
2011,05,31,14,34,15.40
2011,05,31,14,35,15.40
2011,05,31,14,36,15.50
2011,05,31,14,37,15.50
2011,05,31,14,38,15.50
2011,05,31,14,39,15.50
2011,05,31,14,40,15.60
2011,05,31,14,41,15.60
2011,05,31,14,42,15.70
2011,05,31,14,43,15.70
2011,05,31,14,44,15.70
2011,05,31,14,45,15.70
2011,05,31,14,46,15.70
2011,05,31,14,47,15.80
2011,05,31,14,48,15.80
2011,05,31,14,49,15.80
2011,05,31,14,50,15.70
2011,05,31,14,51,15.70
2011,05,31,14,52,15.60
2011,05,31,14,53,15.60
2011,05,31,14,54,15.50
2011,05,31,14,55,15.50
2011,05,31,14,56,15.40
2011,05,31,14,57,15.40
2011,05,31,14,58,15.50
2011,05,31,14,59,15.50
2011,05,31,15,00,15.50
2011,05,31,15,01,15.60
2011,05,31,15,02,15.60
2011,05,31,15,03,15.70
2011,05,31,15,04,15.70
2011,05,31,15,05,15.70
2011,05,31,15,06,15.80
2011,05,31,15,07,15.80
2011,05,31,15,08,15.90
2011,05,31,15,09,15.90
2011,05,31,15,10,16.00
2011,05,31,15,11,16.10
2011,05,31,15,12,16.10
2011,05,31,15,13,16.20
2011,05,31,15,14,16.30
2011,05,31,15,15,16.30
2011,05,31,15,16,16.40
2011,05,31,15,17,16.40
2011,05,31,15,18,16.40
2011,05,31,15,19,16.40
2011,05,31,15,20,16.40
2011,05,31,15,21,16.40
2011,05,31,15,22,16.40
2011,05,31,15,23,16.40
2011,05,31,15,24,16.40
2011,05,31,15,25,16.40
2011,05,31,15,26,16.50
2011,05,31,15,27,16.50
2011,05,31,15,28,16.60
2011,05,31,15,29,16.60
2011,05,31,15,30,16.60
2011,05,31,15,31,16.70
2011,05,31,15,32,16.80
2011,05,31,15,33,16.80
2011,05,31,15,34,16.80
2011,05,31,15,35,16.90
2011,05,31,15,36,16.90
2011,05,31,15,37,16.90
2011,05,31,15,38,16.90
2011,05,31,15,39,17.00
2011,05,31,15,40,17.00
2011,05,31,15,41,17.10
2011,05,31,15,42,17.10
2011,05,31,15,43,17.20
2011,05,31,15,44,17.20
2011,05,31,15,45,17.30
2011,05,31,15,46,17.30
2011,05,31,15,47,17.30
2011,05,31,15,48,17.40
2011,05,31,15,49,17.40
2011,05,31,15,50,17.50
2011,05,31,15,51,17.50
2011,05,31,15,52,17.60
2011,05,31,15,53,17.70
2011,05,31,15,54,17.80
2011,05,31,15,55,17.90
2011,05,31,15,56,18.00
2011,05,31,15,57,18.20
2011,05,31,15,58,18.30
2011,05,31,15,59,18.30
2011,05,31,16,00,18.20
2011,05,31,16,01,18.20
2011,05,31,16,02,18.20
2011,05,31,16,03,18.30
2011,05,31,16,04,18.30
2011,05,31,16,05,18.40
2011,05,31,16,06,18.40
2011,05,31,16,07,18.30
2011,05,31,16,08,18.20
2011,05,31,16,09,18.20
2011,05,31,16,10,18.10
2011,05,31,16,11,18.00
2011,05,31,16,12,18.00
2011,05,31,16,13,18.10
2011,05,31,16,14,18.30
2011,05,31,16,15,18.40
2011,05,31,16,16,18.40
2011,05,31,16,17,18.40
2011,05,31,16,18,18.30
2011,05,31,16,19,18.20
2011,05,31,16,20,18.20
2011,05,31,16,21,18.20
2011,05,31,16,22,18.20
2011,05,31,16,23,18.20
2011,05,31,16,24,18.20
2011,05,31,16,25,18.20
2011,05,31,16,26,18.10
2011,05,31,16,27,18.00
2011,05,31,16,28,18.00
2011,05,31,16,29,18.00
2011,05,31,16,30,18.10
2011,05,31,16,31,18.20
2011,05,31,16,32,18.20
2011,05,31,16,33,18.20
2011,05,31,16,34,18.20
2011,05,31,16,35,18.20
2011,05,31,16,36,18.30
2011,05,31,16,37,18.20
2011,05,31,16,38,18.10
2011,05,31,16,39,18.10
2011,05,31,16,40,18.10
2011,05,31,16,41,18.10
2011,05,31,16,42,18.00
2011,05,31,16,43,18.00
2011,05,31,16,44,17.90
2011,05,31,16,45,17.90
2011,05,31,16,46,17.70
2011,05,31,16,47,17.50
2011,05,31,16,48,17.20
2011,05,31,16,49,17.00
2011,05,31,16,50,16.80
2011,05,31,16,51,16.60
2011,05,31,16,52,16.50
2011,05,31,16,53,16.30
2011,05,31,16,54,16.30
2011,05,31,16,55,16.30
2011,05,31,16,56,16.40
2011,05,31,16,57,16.40
2011,05,31,16,58,16.50
2011,05,31,16,59,16.60
2011,05,31,17,00,16.80
2011,05,31,17,01,16.80
2011,05,31,17,02,16.90
2011,05,31,17,03,16.90
2011,05,31,17,04,17.00
2011,05,31,17,05,17.00
2011,05,31,17,06,17.00
2011,05,31,17,07,17.10
2011,05,31,17,08,17.10
2011,05,31,17,09,17.10
2011,05,31,17,10,17.10
2011,05,31,17,11,17.20
2011,05,31,17,12,17.10
2011,05,31,17,13,17.10
2011,05,31,17,14,17.10
2011,05,31,17,15,17.10
2011,05,31,17,16,17.10
2011,05,31,17,17,17.10
2011,05,31,17,18,17.20
2011,05,31,17,19,17.20
2011,05,31,17,20,17.20
2011,05,31,17,21,17.30
2011,05,31,17,22,17.30
2011,05,31,17,23,17.30
2011,05,31,17,24,17.40
2011,05,31,17,25,17.40
2011,05,31,17,26,17.50
2011,05,31,17,27,17.50
2011,05,31,17,28,17.60
2011,05,31,17,29,17.70